Location: *
(43.9900°N, 3.4811°E)
Time: 19:54:23
(UTC+00:00)

Cosmos 1697 Rocket - Visible Passes

Search period start: 15 November 2019 00:00
Search period end: 25 November 2019 00:00
Orbit: 832 x 843 km, 71.0° (Epoch: 14 November)

Date Brightness Start Highest point End Pass type
(mag) Time Alt. Az. Time Alt. Az. Time Alt. Az.
15 Nov 5.1 02:48:49 17° ESE 02:48:49 17° ESE 02:50:20 10° ESE visible
15 Nov 3.2 04:30:39 40° SW 04:30:39 40° SW 04:34:49 10° S visible
15 Nov 3.0 17:32:15 10° S 17:37:33 43° ESE 17:42:03 14° NE visible
15 Nov 4.2 19:16:39 10° WSW 19:21:39 31° NW 19:23:49 24° NNW visible
16 Nov 4.0 04:16:10 26° SSW 04:16:10 26° SSW 04:18:44 10° S visible
16 Nov 3.2 17:16:10 10° S 17:21:24 40° ESE 17:26:39 10° NE visible
16 Nov 4.2 19:00:21 10° WSW 19:05:26 33° NW 19:08:36 20° N visible
17 Nov 4.7 04:01:42 15° S 04:01:42 15° S 04:02:38 10° S visible
17 Nov 3.3 17:00:07 10° S 17:05:15 37° ESE 17:10:25 10° NE visible
17 Nov 4.1 18:44:04 10° WSW 18:49:13 35° NW 18:53:17 15° N visible
18 Nov 3.4 16:44:03 10° SSE 16:49:06 35° ESE 16:54:11 10° NE visible
18 Nov 4.0 18:27:46 10° SW 18:33:01 38° NW 18:37:52 12° N visible
19 Nov 3.9 18:11:30 10° SW 18:16:48 40° WNW 18:22:07 10° NNE visible
20 Nov 3.8 17:55:14 10° SW 18:00:35 43° WNW 18:05:58 10° NNE visible
21 Nov 3.7 17:38:58 10° SW 17:44:23 46° WNW 17:49:49 10° NNE visible
22 Nov 3.6 17:22:43 10° SW 17:28:11 49° WNW 17:33:40 10° NNE visible
22 Nov 5.4 19:12:43 10° NW 19:13:37 10° NW 19:14:31 10° NNW visible
23 Nov 3.5 17:06:28 10° SW 17:11:58 52° WNW 17:17:30 10° NNE visible
23 Nov 5.3 18:55:50 10° NW 18:57:21 11° NW 18:58:51 10° NNW visible
24 Nov 3.4 16:50:14 10° SW 16:55:47 56° WNW 17:01:21 10° NNE visible
24 Nov 5.3 18:39:08 10° WNW 18:41:04 12° NW 18:43:00 10° NNW visible
